Location: Austin, TX
(30.3000°N, 97.7500°W)
Time: 17:32:07
(UTC-05:00)

Daily predictions for brighter satellites

Satellite Brightness Start Highest point End
(mag) Time Altitude Azimuth Time Altitude Azimuth Time Altitude Azimuth
Cosmos 2058 4.4 20:24:37 10° NNW 20:28:35 41° W 20:32:33 10° SSW
Sich 1 4.5 20:26:52 10° NNE 20:29:53 19° ENE 20:32:54 10° ESE
Cosmos 1300 2.8 20:26:52 10° S 20:30:40 81° W 20:34:29 10° N
Cosmos 1346 Rocket 4.0 20:31:22 10° SSW 20:35:18 50° W 20:39:17 10° N
Cosmos 2360 Rocket 3.9 20:33:46 10° SW 20:38:57 38° WNW 20:44:10 10° N
OAO 2 Rocket 4.0 20:39:15 10° WNW 20:44:21 52° N 20:49:18 10° E
Cosmos 2333 Rocket 2.3 20:42:58 10° S 20:48:27 52° ESE 20:53:54 10° NNE
CZ-2D R/B 3.3 20:45:21 10° SSE 20:49:04 57° ENE 20:52:47 10° N
NOSS 2-1 (E) 4.2 20:45:40 10° SW 20:49:13 48° WNW 20:52:51 10° NNE
Cosmos 1633 Rocket 4.2 20:46:49 10° NNE 20:50:22 24° E 20:52:48 15° ESE
Meteor 2-2 Rocket 4.4 20:46:19 10° S 20:51:57 57° E 20:57:43 10° NNE
COSMOS 2428 2.9 20:47:53 10° SSW 20:53:36 77° WNW 20:59:21 10° NNE
Cosmos 1455 2.9 20:51:15 10° SSE 20:54:38 31° E 20:58:04 10° NNE
Cosmos 2228 Rocket 4.4 20:52:50 15° ESE 20:54:49 20° E 20:58:03 10° NE
Cosmos 2221 4.2 20:51:00 10° SSW 20:54:56 37° W 20:58:54 10° NNW
ERS-2 2.4 20:54:08 11° SSE 20:57:26 48° ENE 21:00:58 10° N
NOSS 3-3 (A) 4.0 20:55:48 10° SSW 21:01:42 82° WNW 21:08:04 10° NNE
NOSS 3-3 (C) 4.0 20:55:55 10° SSW 21:01:49 83° WNW 21:08:11 10° NNE
Cosmos 1844 Rocket 3.0 20:57:19 10° N 21:02:46 47° ENE 21:06:44 18° SE
SL-8 R/B 3.8 21:00:05 10° SW 21:04:51 82° NW 21:09:40 10° NE
Cosmos 2263 Rocket 4.2 21:00:12 10° NW 21:04:53 27° WSW 21:09:34 10° SSW
Cosmos 1844 4.3 21:01:02 10° N 21:06:20 38° ENE 21:09:34 21° ESE
Cosmos 2219 Rocket 2.2 21:01:20 10° SSW 21:07:00 87° WNW 21:12:40 10° NNE
Cosmos 1892 3.2 21:03:25 10° N 21:07:06 40° E 21:08:58 24° SE
Cosmos 2237 Rocket 2.5 21:02:24 10° S 21:07:37 41° ESE 21:12:50 10° NE
Cosmos 494 Rocket 4.1 21:04:13 10° NNW 21:09:26 76° WSW 21:14:39 10° S
NOSS 3 (A) 4.2 21:07:13 10° SSW 21:10:01 62° ESE 21:12:46 10° NE
ATLAS 2A CENTAUR R/B 4.5 20:42:26 10° W 21:11:19 48° SW 21:16:12 17° SSE
Cosmos 2154 Rocket 4.0 21:06:26 10° S 21:12:43 87° W 21:18:59 10° N
YAOGAN 6 2.6 21:12:22 25° SE 21:14:11 56° ENE 21:17:44 10° N
Cosmos 1805 Rocket 3.7 21:10:22 10° N 21:14:42 72° W 21:18:59 10° S
Cosmos 1328 Rocket 3.6 21:10:34 10° S 21:14:51 57° E 21:19:11 10° NNE
USA 267 3.9 21:12:12 10° ENE 21:17:49 30° SE 21:23:24 10° S
Resurs 01 Rocket 1.8 21:16:04 25° SE 21:18:25 52° ENE 21:22:45 10° N
Delta 128 4.4 21:14:23 10° W 21:19:39 57° S 21:22:52 27° ESE
Cosmos 2278 Rocket 3.5 21:18:16 10° NNE 21:22:32 22° ENE 21:23:35 20° ENE
Envisat 3.6 21:20:14 10° S 21:25:12 57° W 21:30:12 10° NNW
SAR-Lupe-3 4.4 21:22:01 10° NNE 21:25:37 81° ESE 21:28:56 12° S
Cosmos 2251 Rocket 3.5 21:22:20 10° NNW 21:27:43 84° ENE 21:31:05 23° SSE
ATLAS CENTAUR R/B 2.2 21:25:44 10° SW 21:29:12 45° WNW 21:32:47 10° NNE
ATLAS 3B CENTAUR R/B 3.9 21:19:19 10° W 21:32:05 36° SW 21:36:07 20° SSE
Cosmos 1470 Rocket 4.1 21:28:29 10° NNE 21:32:36 38° E 21:32:39 38° E
Fermi 4.2 21:30:07 10° WSW 21:34:03 42° S 21:34:17 41° SSE
GPS 2-05 Rocket1 3.6 21:30:53 10° W 21:34:03 38° SSW 21:34:13 37° SSW
Cosmos 2341 Rocket 4.0 21:28:12 10° S 21:34:34 87° W 21:40:56 10° N
Cosmos 2056 Rocket 4.2 21:35:44 33° E 21:35:44 33° E 21:40:00 10° NE
deb Centaur AC-2 4.0 21:33:11 10° W 21:37:35 85° S 21:38:52 48° E
Cosmos 2098 Rocket 4.2 21:39:29 31° ENE 21:39:29 31° ENE 21:42:23 10° NNE
Cosmos 2218 Rocket 4.1 21:37:26 26° SSE 21:40:54 54° E 21:47:06 10° NNE
ASTRO E2 3.2 21:38:54 10° SW 21:42:08 43° SSW 21:42:08 43° SSW
Timation 1 Rocket 4.3 21:40:47 10° NNW 21:46:46 86° WSW 21:49:26 35° SSE
Cosmos 1825 3.9 21:44:48 10° NNE 21:46:31 22° NNE 21:46:31 22° NNE
NOSS 0 Rocket 4.3 21:42:22 10° SSW 21:48:27 65° WNW 21:54:37 10° NNE
USA 186 4.0 21:49:32 16° WNW 21:49:32 16° WNW 21:50:34 10° NW
Cosmos 1939 Rocket 3.8 21:50:30 28° SSW 21:52:06 43° W 21:55:48 10° NNW
Cosmos 1624 Rocket 4.1 21:52:47 52° E 21:52:47 52° E 21:57:22 10° NNE
SJ-11-01 4.4 21:51:57 41° S 21:53:33 72° WSW 21:58:12 10° NNW
Cosmos 2366 rocket 3.9 21:51:34 39° SSE 21:53:46 62° E 21:59:56 10° NNE
Resurs 1-3 4.2 21:52:14 30° SSW 21:54:10 53° W 21:58:27 10° NNW
SL-24 R/B - RUBIN 2 3.8 21:51:12 10° NW 21:55:28 61° WSW 21:56:09 53° SSW
Cosmos 2344 4.2 21:49:39 10° S 21:58:41 33° E 22:03:43 10° NE
SL-16 R/B 3.4 21:59:34 27° NE 21:59:34 27° NE 22:02:19 10° NE
Cosmos 1869 4.5 22:02:49 35° NNE 22:02:49 35° NNE 22:05:13 10° N
Cosmos 1933 Rocket 3.8 21:56:57 10° N 22:00:35 57° NNE 22:00:35 57° NNE
Cosmos 1151 Rocket 3.6 22:01:27 33° SW 22:03:02 54° W 22:07:13 10° N
SL-8 Rocket 4.1 21:57:20 11° S 22:03:25 79° W 22:09:44 10° N
Sakura Rocket 3.6 22:01:03 10° W 22:04:18 45° WSW 22:04:18 45° WSW
ARGOS 3.6 22:07:10 45° NE 22:07:10 45° NE 22:11:39 10° N
Cosmos 220 Rocket 4.2 22:02:50 10° NNW 22:06:39 68° NW 22:06:39 68° NW
Meteor 2-3 Rocket 4.1 22:01:41 10° NNW 22:07:12 60° W 22:09:43 32° SSW
Spot 2 Rocket 3.9 22:06:34 41° SSW 22:08:09 59° WSW 22:13:11 10° NNW
GEOS 3 Rocket 3.4 22:04:21 10° NNE 22:09:41 81° ESE 22:14:53 10° SSW
ATLAS 2AS CENTAUR R/B 2.7 22:13:47 10° NNW 22:21:33 86° ENE 22:22:42 66° SE
Meteor 2-10 Rocket 3.7 22:27:11 79° W 22:27:16 79° W 22:33:05 10° N
OAO 2 Rocket 3.9 22:24:14 10° WNW 22:28:16 55° WNW 22:28:16 55° WNW
ATLAS 2A CENTAUR R/B 3.6 22:17:44 10° WSW 22:35:40 59° S 22:36:37 57° SSE
H-2A R/B 3.2 22:48:28 38° NNW 22:48:28 38° NNW 22:51:29 10° NNW
ERS-1 Rocket 4.3 22:50:13 34° N 22:50:13 34° N 22:53:01 10° NNW
Cosmos 2237 Rocket 4.5 22:47:35 10° WSW 22:51:44 21° WNW 22:55:56 10° NNW
NOSS 3-4 (A) 4.5 22:45:00 10° NNW 22:51:00 43° NE 22:51:00 43° NE
USA 267 3.7 22:54:31 10° NNE 23:00:53 57° NW 23:07:15 10° WSW
Cosmos 2278 Rocket 3.5 23:01:26 10° NW 23:05:28 36° WNW 23:05:28 36° WNW
SL-16 R/B 4.4 23:41:17 21° WNW 23:41:17 21° WNW 23:45:25 10° NNW
